Location: *
(46.0770°N, 1.6444°E)
Time: 00:33:28
(UTC+00:00)

Cosmos 1437 Rocket - Pass Details

Date: 16 September 2019
Orbit: 506 x 563 km, 81.2° (Epoch: 21 October)

Event Time Altitude Azimuth Distance (km) Brightness Sun altitude
Rises 19:36:25 0° 1° (N) 2,651 6.6 -16.5°
Reaches altitude 10° 19:39:00 10° 18° (NNE) 1,749 5.4 -16.9°
Enters shadow 19:41:17 20° 54° (NE) 1,237 4.3 -17.2°
